This is the latest recevied weather packets stored in our database for station/object N7CEE. If no packets are shown the sender has not sent any weather packets the latest 10 day(s).
| Time | Temp. | Humidity | Pressure | Rain* | Wind** | Luminosity | Snow |
|---|---|---|---|---|---|---|---|
| 1777434637 | 7.78° C | 38% | 1025.1 hPa | 0 mm | - | 0 W/m² | - |
| 1777434332 | 7.78° C | 37% | 1025.3 hPa | 0 mm | - | 0 W/m² | - |
| 1777434031 | 8.33° C | 36% | 1025.3 hPa | 0 mm | - | 0 W/m² | - |
| 1777433727 | 8.89° C | 35% | 1025.2 hPa | 0 mm | - | 0 W/m² | - |
| 1777433423 | 9.44° C | 34% | 1025.2 hPa | 0 mm | - | 0 W/m² | - |
| 1777433118 | 9.44° C | 32% | 1025.1 hPa | 0 mm | - | 0 W/m² | - |
| 1777432815 | 10° C | 32% | 1025 hPa | 0 mm | - | 0 W/m² | - |
| 1777432510 | 10° C | 31% | 1025 hPa | 0 mm | - | 0 W/m² | - |
| 1777432206 | 10° C | 31% | 1025.1 hPa | 0 mm | - | 0 W/m² | - |
| 1777431905 | 10.56° C | 32% | 1024.9 hPa | 0 mm | - | 0 W/m² | - |
| 1777431603 | 10.56° C | 31% | 1024.7 hPa | 0 mm | - | 0 W/m² | - |
| 1777431298 | 10.56° C | 31% | 1024.9 hPa | 0 mm | - | 0 W/m² | - |
| 1777430994 | 11.11° C | 30% | 1024.7 hPa | 0 mm | - | 0 W/m² | - |
| 1777430690 | 11.67° C | 30% | 1024.7 hPa | 0 mm | - | 0 W/m² | - |
| 1777430386 | 11.11° C | 30% | 1024.4 hPa | 0 mm | - | 0 W/m² | - |
| 1777430082 | 11.67° C | 30% | 1024.2 hPa | 0 mm | - | 0 W/m² | - |
| 1777429778 | 11.67° C | 30% | 1024.4 hPa | 0 mm | - | 0 W/m² | - |
| 1777429473 | 12.22° C | 28% | 1024.2 hPa | 0 mm | - | 0 W/m² | - |
| 1777429169 | 12.22° C | 28% | 1024.4 hPa | 0 mm | - | 1 W/m² | - |
| 1777428866 | 12.78° C | 28% | 1024.1 hPa | 0 mm | - | 1 W/m² | - |
| 1777428562 | 12.78° C | 28% | 1024.1 hPa | 0 mm | - | 3 W/m² | - |
| 1777428258 | 12.78° C | 27% | 1024.1 hPa | 0 mm | - | 4 W/m² | - |
| 1777427953 | 12.78° C | 27% | 1023.9 hPa | 0 mm | - | 6 W/m² | - |
| 1777427650 | 13.33° C | 27% | 1023.9 hPa | 0 mm | - | 7 W/m² | - |
| 1777427347 | 13.33° C | 26% | 1023.7 hPa | 0 mm | - | 9 W/m² | - |
* Rain latest hour (hover to see other rain measurements)
** Current wind speed in m/s (hover to see current wind gust speed)